Location: Unspecified
(0.0000°N, 0.0000°E)
Time: 04:36:57
(UTC+00:00)

Explorer 11/Cluster Stage 4 - Visible Passes

Search period start: 03 September 2014 00:00
Search period end: 13 September 2014 00:00
Orbit: 468 x 1284 km, 28.8° (Epoch: 02 September)

Date Brightness Start Highest point End Pass type
(mag) Time Alt. Az. Time Alt. Az. Time Alt. Az.
03 Sep 8.4 03:44:00 18° ESE 03:44:00 18° ESE 03:45:08 10° ESE visible
03 Sep 7.2 05:26:28 10° W 05:29:33 20° SSW 05:32:24 10° SSE visible
03 Sep 9.5 18:13:42 10° WNW 18:19:41 23° NNW 18:25:59 10° NNE visible
04 Sep 8.8 03:38:25 13° ESE 03:38:25 13° ESE 03:38:51 10° ESE visible
04 Sep 7.6 05:20:52 11° WSW 05:23:03 15° SSW 05:25:24 10° S visible
05 Sep 8.0 05:15:11 10° SW 05:16:34 12° SSW 05:18:03 10° S visible
12 Sep 9.8 21:00:22 10° NNW 21:00:49 11° NNW 21:00:49 11° NNW visible
